contact:dominique.lefevre@mio.osupytheas.fr, maurice.libes@osupytheas.fr
Project:EMSO Ligure-ouest http://www.emso-fr.org/EMSO-France
Sensor Aquadopp, line 13 Serial AQD14315 
DOI : "https://doi.org/10.17882/74513; https://doi.org/10.17882/83244" 
Title:EMSO Ligure Ouest : Data ligne ALBATROSS capteur AQUADOPP - deploiement 2021
Id,Date,Profondeur,Latitude,Longitude,X_East,Y_North,Z_Up,Amplitude_X,Amplitude_Y,Amplitude_Z,Batterie,SoundSpeed,Heading,Pitch,Roll,Pressure,Temperature,Speed,Direction
, , m, degrees North, degrees East, m.s-1, m.s-1,m.s-1, 1, 1, 1, Volt, m.s-1, degree, degree, degree, dbar, degree_C, m.s-1, degree
07,2021-11-12T21:30:00,1500.0,42.79,6.0312,-0.022,-0.069,-0.006,48.0,51.0,51.0,12.6,1504.2,192.4,-0.1,-0.1,1472.827,13.15,0.072,197.7
07,2021-11-12T22:00:00,1500.0,42.79,6.0312,-0.016,-0.049,-0.011,49.0,50.0,49.0,12.7,1504.2,198.4,-0.1,-0.3,1472.827,13.15,0.051,198.1
07,2021-11-12T22:30:00,1500.0,42.79,6.0312,-0.009,-0.036,-0.004,49.0,49.0,48.0,12.7,1504.2,191.7,-0.4,-0.4,1472.833,13.14,0.037,194.0
07,2021-11-12T23:00:00,1500.0,42.79,6.0312,-0.013,-0.051,-0.01,49.0,49.0,48.0,12.7,1504.2,195.2,-0.1,-0.2,1472.792,13.15,0.052,194.3
07,2021-11-12T23:30:00,1500.0,42.79,6.0312,-0.01,-0.045,-0.012,49.0,53.0,50.0,12.7,1504.2,196.2,-0.4,-0.1,1472.81,13.15,0.046,192.5
07,2021-11-13T00:00:00,1500.0,42.79,6.0312,-0.017,-0.048,0.014,50.0,51.0,52.0,12.7,1504.2,195.0,-0.1,-0.4,1472.857,13.15,0.05,199.5
07,2021-11-13T00:30:00,1500.0,42.79,6.0312,-0.01,-0.039,0.003,52.0,54.0,53.0,12.7,1504.2,194.5,-0.1,-0.1,1472.837,13.15,0.04,194.4
07,2021-11-13T01:00:00,1500.0,42.79,6.0312,0.0,-0.051,-0.009,51.0,52.0,53.0,12.7,1504.2,188.6,-0.5,-0.4,1472.835,13.14,0.051,180.0
07,2021-11-13T01:30:00,1500.0,42.79,6.0312,-0.006,-0.057,0.014,53.0,54.0,54.0,12.7,1504.2,184.1,-0.5,-0.2,1472.884,13.15,0.057,186.0
07,2021-11-13T02:00:00,1500.0,42.79,6.0312,-0.011,-0.049,-0.008,57.0,55.0,56.0,12.7,1504.2,191.7,-0.4,-0.4,1472.844,13.15,0.05,192.7
07,2021-11-13T02:30:00,1500.0,42.79,6.0312,-0.012,-0.051,0.002,56.0,58.0,57.0,12.7,1504.2,195.8,-0.4,-0.3,1472.906,13.15,0.052,193.2
07,2021-11-13T03:00:00,1500.0,42.79,6.0312,-0.012,-0.055,-0.012,57.0,58.0,58.0,12.6,1504.2,194.9,-0.2,-0.3,1472.878,13.15,0.056,192.3
07,2021-11-13T03:30:00,1500.0,42.79,6.0312,-0.018,-0.052,0.006,51.0,51.0,49.0,12.6,1504.2,190.6,-0.4,-0.1,1472.88,13.15,0.055,199.1
07,2021-11-13T04:00:00,1500.0,42.79,6.0312,-0.025,-0.048,-0.006,51.0,54.0,52.0,12.7,1504.2,201.3,-0.4,-0.3,1472.89,13.15,0.054,207.5
07,2021-11-13T04:30:00,1500.0,42.79,6.0312,-0.019,-0.05,0.003,52.0,52.0,52.0,12.6,1504.2,203.8,-0.6,-0.2,1472.898,13.15,0.053,200.8
07,2021-11-13T05:00:00,1500.0,42.79,6.0312,-0.028,-0.052,-0.008,53.0,53.0,54.0,12.6,1504.2,208.7,-0.6,-0.3,1472.925,13.16,0.059,208.3
07,2021-11-13T05:30:00,1500.0,42.79,6.0312,-0.009,-0.045,0.011,53.0,55.0,54.0,12.7,1504.2,208.9,-0.3,-0.3,1472.892,13.15,0.045,191.3
07,2021-11-13T06:00:00,1500.0,42.79,6.0312,-0.019,-0.064,0.001,51.0,53.0,52.0,12.7,1504.2,209.5,-0.4,-0.3,1472.887,13.15,0.066,196.5
07,2021-11-13T06:30:00,1500.0,42.79,6.0312,-0.038,-0.053,0.0,52.0,54.0,54.0,12.7,1504.2,221.3,-0.5,-0.4,1472.892,13.15,0.065,215.6
07,2021-11-13T07:00:00,1500.0,42.79,6.0312,-0.017,-0.063,0.005,57.0,59.0,58.0,12.6,1504.2,198.0,0.0,-0.2,1472.861,13.15,0.065,195.1
07,2021-11-13T07:30:00,1500.0,42.79,6.0312,-0.048,-0.045,-0.007,59.0,58.0,57.0,12.7,1504.2,224.6,-0.4,-0.6,1472.905,13.15,0.065,226.9
07,2021-11-13T08:00:00,1500.0,42.79,6.0312,-0.031,-0.068,0.01,56.0,57.0,57.0,12.7,1504.2,205.9,-0.3,-0.3,1472.901,13.15,0.074,204.5
07,2021-11-13T08:30:00,1500.0,42.79,6.0312,-0.055,-0.055,-0.013,55.0,57.0,56.0,12.6,1504.2,217.5,-1.1,-0.4,1472.916,13.15,0.077,225.0
07,2021-11-13T09:00:00,1500.0,42.79,6.0312,-0.021,-0.066,-0.01,57.0,57.0,56.0,12.7,1504.2,202.1,-0.5,0.0,1472.916,13.15,0.069,197.6
07,2021-11-13T09:30:00,1500.0,42.79,6.0312,-0.041,-0.058,0.0,56.0,56.0,55.0,12.7,1504.2,213.3,-0.1,-0.1,1472.924,13.16,0.071,215.3
07,2021-11-13T10:00:00,1500.0,42.79,6.0312,-0.037,-0.069,0.007,55.0,54.0,54.0,12.7,1504.2,203.5,-0.6,-0.4,1472.912,13.15,0.078,208.2
07,2021-11-13T10:30:00,1500.0,42.79,6.0312,-0.049,-0.058,0.003,54.0,55.0,54.0,12.7,1504.2,214.7,-0.2,-0.3,1472.953,13.16,0.075,220.2
07,2021-11-13T11:00:00,1500.0,42.79,6.0312,-0.037,-0.07,0.007,54.0,56.0,56.0,12.7,1504.2,206.9,-0.3,-0.3,1472.948,13.16,0.079,207.9
07,2021-11-13T11:30:00,1500.0,42.79,6.0312,-0.045,-0.064,0.004,55.0,55.0,56.0,12.7,1504.2,203.4,-0.3,-0.4,1472.967,13.16,0.078,215.1
07,2021-11-13T12:00:00,1500.0,42.79,6.0312,-0.032,-0.07,0.005,55.0,55.0,56.0,12.7,1504.2,204.2,-0.4,-0.1,1472.983,13.16,0.076,204.6
07,2021-11-13T12:30:00,1500.0,42.79,6.0312,-0.059,-0.057,-0.006,54.0,55.0,57.0,12.7,1504.2,229.0,-0.2,0.0,1473.023,13.16,0.082,226.0
07,2021-11-13T13:00:00,1500.0,42.79,6.0312,-0.046,-0.057,-0.003,54.0,56.0,56.0,12.7,1504.2,212.6,-0.3,-0.7,1473.016,13.16,0.073,218.9
07,2021-11-13T13:30:00,1500.0,42.79,6.0312,-0.044,-0.058,0.011,55.0,56.0,57.0,12.7,1504.2,204.9,-0.8,-0.6,1473.048,13.16,0.072,217.2
07,2021-11-13T14:00:00,1500.0,42.79,6.0312,-0.062,-0.045,0.007,56.0,54.0,55.0,12.7,1504.2,220.8,-0.5,-0.2,1473.099,13.16,0.076,234.0
07,2021-11-13T14:30:00,1500.0,42.79,6.0312,-0.048,-0.056,0.005,53.0,56.0,53.0,12.6,1504.2,214.6,-0.8,-0.4,1473.122,13.15,0.073,220.6
07,2021-11-13T15:00:00,1500.0,42.79,6.0312,-0.064,-0.055,-0.007,54.0,54.0,55.0,12.7,1504.2,224.9,-0.7,-0.1,1473.115,13.16,0.084,229.3
07,2021-11-13T15:30:00,1500.0,42.79,6.0312,-0.056,-0.046,0.012,55.0,56.0,55.0,12.7,1504.2,229.0,-1.2,-0.5,1473.133,13.15,0.072,230.6
07,2021-11-13T16:00:00,1500.0,42.79,6.0312,-0.082,-0.026,-0.006,55.0,54.0,55.0,12.6,1504.2,241.9,-0.7,-0.1,1473.114,13.15,0.086,252.4
07,2021-11-13T16:30:00,1500.0,42.79,6.0312,-0.069,-0.058,0.007,52.0,54.0,53.0,12.7,1504.2,220.3,-1.0,-0.4,1473.146,13.16,0.09,230.0
07,2021-11-13T17:00:00,1500.0,42.79,6.0312,-0.086,-0.006,0.012,52.0,55.0,54.0,12.6,1504.2,254.0,-0.4,-0.9,1473.159,13.15,0.086,266.0
07,2021-11-13T17:30:00,1500.0,42.79,6.0312,-0.053,-0.064,0.017,55.0,54.0,54.0,12.7,1504.2,204.4,-1.2,-0.4,1473.155,13.15,0.083,219.6
07,2021-11-13T18:00:00,1500.0,42.79,6.0312,-0.099,-0.009,0.006,52.0,56.0,53.0,12.7,1504.2,257.7,-0.7,-0.1,1473.144,13.16,0.099,264.8
07,2021-11-13T18:30:00,1500.0,42.79,6.0312,-0.082,-0.042,0.014,54.0,54.0,54.0,12.6,1504.2,232.5,-0.5,-0.3,1473.15,13.16,0.092,242.9
07,2021-11-13T19:00:00,1500.0,42.79,6.0312,-0.084,0.003,0.0,54.0,55.0,56.0,12.7,1504.2,258.9,0.3,-0.3,1473.149,13.16,0.084,272.0
07,2021-11-13T19:30:00,1500.0,42.79,6.0312,-0.061,-0.082,-0.012,54.0,56.0,56.0,12.6,1504.2,205.1,-0.9,-0.3,1473.161,13.16,0.102,216.6
07,2021-11-13T20:00:00,1500.0,42.79,6.0312,-0.097,0.005,-0.011,55.0,55.0,55.0,12.6,1504.2,255.8,-0.7,0.0,1473.137,13.15,0.097,272.9
07,2021-11-13T20:30:00,1500.0,42.79,6.0312,-0.087,-0.061,-0.006,54.0,55.0,54.0,12.6,1504.2,222.5,-0.7,-0.5,1473.11,13.15,0.106,235.0
07,2021-11-13T21:00:00,1500.0,42.79,6.0312,-0.079,-0.048,0.004,54.0,55.0,56.0,12.7,1504.2,218.7,0.3,0.2,1473.138,13.15,0.092,238.7
